FW5359 Weather Reports


time (UTC)temp
C
wind
direction
speed
KPH
gust
KPH
rain 1hr
cm
rain 24hr
cm
rain mn
cm
humidity
%
barometer
mb
20260503194154 24 154 4.8 16.1 0.00 0.00 0.00 39 1021.9
20260503193919 24 167 6.4 17.7 0.00 0.00 0.00 38 1021.9
20260503193142 24 155 4.8 17.7 0.00 0.00 0.00 41 1022.0
20260503192636 24 90 3.2 11.3 0.00 0.00 0.00 42 1021.9
20260503192130 24 138 4.8 14.5 0.00 0.00 0.00 38 1021.8
20260503191624 24 169 4.8 16.1 0.00 0.00 0.00 41 1022.0
20260503191120 24 147 3.2 16.1 0.00 0.00 0.00 42 1022.1
20260503190620 24 161 3.2 12.9 0.00 0.00 0.00 45 1022.1
20260503190350 24 230 4.8 14.5 0.00 0.00 0.00 46 1022.1
20260503185851 24 142 4.8 14.5 0.00 0.00 0.00 45 1022.3
20260503185120 24 221 4.8 12.9 0.00 0.00 0.00 45 1022.2
20260503184618 24 196 3.2 14.5 0.00 0.00 0.00 44 1022.2
20260503184118 24 158 3.2 14.5 0.00 0.00 0.00 42 1022.5
20260503183618 24 134 3.2 14.5 0.00 0.00 0.00 44 1022.5
20260503183117 23 166 3.2 14.5 0.00 0.00 0.00 46 1022.6
20260503182614 23 216 4.8 12.9 0.00 0.00 0.00 47 1022.7
20260503182114 23 98 6.4 12.9 0.00 0.00 0.00 48 1022.8
20260503181614 23 106 3.2 12.9 0.00 0.00 0.00 46 1022.9
20260503181114 23 121 3.2 14.5 0.00 0.00 0.00 47 1022.9
20260503180615 23 108 4.8 16.1 0.00 0.00 0.00 47 1023.1
20260503180113 23 188 4.8 17.7 0.00 0.00 0.00 46 1023.2
20260503175612 23 159 3.2 17.7 0.00 0.00 0.00 47 1023.3
20260503175346 23 117 4.8 14.5 0.00 0.00 0.00 46 1023.5
20260503174613 23 244 4.8 14.5 0.00 0.00 0.00 48 1023.5
20260503174111 23 146 3.2 14.5 0.00 0.00 0.00 47 1023.8
20260503173605 23 192 3.2 11.3 0.00 0.00 0.00 49 1023.8
20260503173059 23 169 3.2 11.3 0.00 0.00 0.00 49 1024.0
20260503172553 23 146 1.6 12.9 0.00 0.00 0.00 50 1024.0
20260503172046 23 251 3.2 12.9 0.00 0.00 0.00 49 1024.0
20260503171541 23 283 3.2 14.5 0.00 0.00 0.00 48 1024.1
20260503171035 23 163 4.8 14.5 0.00 0.00 0.00 51 1024.2
20260503170528 23 161 3.2 11.3 0.00 0.00 0.00 48 1024.3
20260503150520 21 160 3.2 11.3 0.00 0.00 0.00 57 1024.8
20260503131411 14 78 0.0 0.0 0.00 0.00 0.00 83 1023.9
20260503130904 13 78 0.0 0.0 0.00 0.00 0.00 85 1023.9
20260503130359 13 78 0.0 0.0 0.00 0.00 0.00 88 1023.9
20260503110641 9 78 0.0 0.0 0.00 0.00 0.00 90 1022.7
20260503110135 9 78 0.0 0.0 0.00 0.00 0.00 89 1022.6
20260503081513 10 78 0.0 0.0 0.00 0.00 0.00 88 1022.6
20260503081012 10 78 0.0 0.0 0.00 0.00 0.00 87 1022.5
20260503080513 10 78 0.0 0.0 0.00 0.00 0.00 87 1022.6
20260503080243 10 78 0.0 0.0 0.00 0.00 0.00 87 1022.7
20260503072739 10 78 0.0 0.0 0.00 0.00 0.00 86 1022.9
20260503072009 10 78 0.0 0.0 0.00 0.00 0.00 86 1023.0
20260503071740 11 78 0.0 0.0 0.00 0.00 0.00 86 1023.1
20260503071239 11 78 0.0 0.0 0.00 0.00 0.00 86 1023.2
20260503070737 11 78 0.0 0.0 0.00 0.00 0.00 86 1023.3
20260503054839 11 78 0.0 0.0 0.00 0.00 0.00 84 1023.3
20260503054606 11 78 0.0 0.0 0.00 0.00 0.00 84 1023.3
20260503053828 11 78 0.0 0.0 0.00 0.00 0.00 84 1023.3
20260503053553 12 78 0.0 0.0 0.00 0.00 0.00 84 1023.2
20260503052816 12 78 0.0 0.0 0.00 0.00 0.00 83 1023.2
20260503052310 12 78 0.0 0.0 0.00 0.00 0.00 83 1023.2
20260503051804 12 78 0.0 0.0 0.00 0.00 0.00 82 1023.2
20260503051258 12 78 0.0 0.0 0.00 0.00 0.00 82 1023.3
20260503050753 12 78 0.0 0.0 0.00 0.00 0.00 82 1023.2
20260503050245 12 78 0.0 0.0 0.00 0.00 0.00 82 1023.2
20260503045746 12 78 0.0 0.0 0.00 0.00 0.00 81 1023.1
20260503045516 12 78 0.0 0.0 0.00 0.00 0.00 82 1023.1
20260503044746 12 78 0.0 0.0 0.00 0.00 0.00 81 1023.2
20260503044246 12 78 0.0 0.0 0.00 0.00 0.00 81 1023.1
20260503043746 12 78 0.0 0.0 0.00 0.00 0.00 81 1023.1
20260503043245 12 78 0.0 0.0 0.00 0.00 0.00 80 1023.1
20260503042746 13 78 0.0 0.0 0.00 0.00 0.00 80 1023.0
20260503042519 13 78 0.0 0.0 0.00 0.00 0.00 79 1023.1
20260503041746 13 78 0.0 0.0 0.00 0.00 0.00 79 1023.2
20260503041245 13 78 0.0 0.0 0.00 0.00 0.00 78 1023.2
20260503041017 13 78 0.0 0.0 0.00 0.00 0.00 78 1023.2
20260503040245 13 78 0.0 0.0 0.00 0.00 0.00 78 1023.2
20260503035746 13 78 0.0 0.0 0.00 0.00 0.00 77 1023.0
20260503035246 13 78 0.0 0.0 0.00 0.00 0.00 77 1023.1
20260503034746 13 78 0.0 0.0 0.00 0.00 0.00 76 1023.0
20260503034245 14 78 0.0 0.0 0.00 0.00 0.00 75 1022.8
20260503033745 14 78 0.0 0.0 0.00 0.00 0.00 74 1022.8
20260503033517 14 78 0.0 0.0 0.00 0.00 0.00 74 1022.9
20260503032739 14 78 0.0 0.0 0.00 0.00 0.00 74 1022.9
20260503032233 15 78 0.0 0.0 0.00 0.00 0.00 72 1022.8
20260503031727 15 78 0.0 0.0 0.00 0.00 0.00 72 1022.8
20260503031221 15 78 0.0 0.0 0.00 0.00 0.00 70 1022.8
20260503030715 15 78 0.0 0.0 0.00 0.00 0.00 70 1022.7
20260503030209 15 78 0.0 0.0 0.00 0.00 0.00 69 1022.7
20260503025703 15 78 0.0 0.0 0.00 0.00 0.00 68 1022.7
20260503025157 16 78 0.0 0.0 0.00 0.00 0.00 67 1022.7
20260503024652 16 78 0.0 0.0 0.00 0.00 0.00 65 1022.5
20260503024416 16 78 0.0 0.0 0.00 0.00 0.00 65 1022.5
20260503023638 16 78 0.0 0.0 0.00 0.00 0.00 65 1022.3
20260503023130 16 78 0.0 0.0 0.00 0.00 0.00 64 1022.3
20260503022625 16 78 0.0 0.0 0.00 0.00 0.00 63 1022.3
20260503022118 17 78 0.0 0.0 0.00 0.00 0.00 62 1022.2
20260503021613 17 78 0.0 0.0 0.00 0.00 0.00 62 1022.2
20260503021339 17 78 0.0 1.6 0.00 0.00 0.00 61 1022.0
20260503020601 17 78 0.0 1.6 0.00 0.00 0.00 60 1021.9
20260503020055 17 78 0.0 0.0 0.00 0.00 0.00 60 1021.9
20260503015549 17 78 0.0 0.0 0.00 0.00 0.00 59 1021.7
20260503015043 18 78 0.0 0.0 0.00 0.00 0.00 58 1021.6
20260503014807 18 78 0.0 0.0 0.00 0.00 0.00 56 1021.5
20260503014031 18 78 0.0 0.0 0.00 0.00 0.00 56 1021.3
20260503013525 18 78 0.0 3.2 0.00 0.00 0.00 53 1021.3
20260503013019 18 78 0.0 3.2 0.00 0.00 0.00 53 1021.2
20260503012514 19 78 0.0 3.2 0.00 0.00 0.00 53 1021.2
20260503012007 19 78 1.6 3.2 0.00 0.00 0.00 52 1021.1
20260503011501 19 78 1.6 3.2 0.00 0.00 0.00 52 1021.1
20260503010955 20 78 1.6 3.2 0.00 0.00 0.00 52 1020.9
20260503010449 20 78 1.6 4.8 0.00 0.00 0.00 51 1021.0
20260503005943 20 78 1.6 6.4 0.00 0.00 0.00 51 1020.9
20260503005707 20 78 1.6 6.4 0.00 0.00 0.00 50 1020.9
20260503005203 20 78 1.6 6.4 0.00 0.00 0.00 50 1020.7
20260503004655 20 79 1.6 6.4 0.00 0.00 0.00 49 1020.7
20260503003919 21 78 1.6 6.4 0.00 0.00 0.00 49 1020.7
20260503003412 21 77 1.6 8.0 0.00 0.00 0.00 49 1020.6
20260503002906 21 76 1.6 8.0 0.00 0.00 0.00 48 1020.6
20260503002402 21 76 3.2 9.7 0.00 0.00 0.00 47 1020.5
20260503001855 21 76 3.2 11.3 0.00 0.00 0.00 47 1020.5
20260503001620 22 65 3.2 11.3 0.00 0.00 0.00 46 1020.6
20260503000843 22 81 4.8 11.3 0.00 0.00 0.00 46 1020.6
20260503000336 22 77 3.2 6.4 0.00 0.00 0.00 46 1020.7
20260502235831 22 69 3.2 8.0 0.00 0.00 0.00 46 1020.7
20260502235325 22 69 3.2 8.0 0.00 0.00 0.00 45 1020.7
20260502234820 22 69 3.2 9.7 0.00 0.00 0.00 44 1020.7
20260502234313 22 71 3.2 9.7 0.00 0.00 0.00 44 1020.7
20260502233301 22 54 3.2 9.7 0.00 0.00 0.00 45 1020.7
20260502232255 23 61 3.2 11.3 0.00 0.00 0.00 43 1020.7
20260502231753 23 60 3.2 11.3 0.00 0.00 0.00 44 1020.7
20260502231252 23 69 3.2 9.7 0.00 0.00 0.00 44 1020.6
20260502231024 23 57 4.8 14.5 0.00 0.00 0.00 44 1020.7
20260502230251 23 46 4.8 14.5 0.00 0.00 0.00 43 1020.9
20260502225751 23 71 3.2 11.3 0.00 0.00 0.00 43 1020.7
20260502225251 23 96 3.2 11.3 0.00 0.00 0.00 43 1020.7
20260502224749 22 80 4.8 11.3 0.00 0.00 0.00 44 1020.7
20260502224247 22 82 3.2 8.0 0.00 0.00 0.00 42 1020.7
20260502223747 22 80 3.2 9.7 0.00 0.00 0.00 44 1020.7
20260502223246 22 80 3.2 9.7 0.00 0.00 0.00 43 1020.7
20260502222747 22 98 3.2 9.7 0.00 0.00 0.00 45 1020.7
20260502222247 22 58 3.2 8.0 0.00 0.00 0.00 45 1020.7
20260502221747 22 55 4.8 12.9 0.00 0.00 0.00 47 1020.7
20260502221246 22 71 6.4 16.1 0.00 0.00 0.00 44 1020.9
20260502220749 22 153 6.4 17.7 0.00 0.00 0.00 45 1020.7
20260502220522 22 81 6.4 17.7 0.00 0.00 0.00 45 1020.9
20260502215745 22 56 4.8 17.7 0.00 0.00 0.00 46 1020.9
20260502215247 23 57 3.2 14.5 0.00 0.00 0.00 45 1020.9
20260502214747 23 74 3.2 14.5 0.00 0.00 0.00 45 1020.9
20260502214245 22 50 4.8 16.1 0.00 0.00 0.00 45 1021.0
20260502213745 22 30 6.4 19.3 0.00 0.00 0.00 44 1021.1
20260502212744 23 65 6.4 17.7 0.00 0.00 0.00 42 1021.1
20260502212245 23 71 4.8 24.1 0.00 0.00 0.00 43 1021.1
20260502211745 23 348 3.2 24.1 0.00 0.03 0.00 44 1021.2
20260502211245 23 82 3.2 14.5 0.00 0.03 0.00 45 1021.3
20260502210745 23 63 4.8 14.5 0.00 0.03 0.00 46 1021.3
20260502210244 23 45 4.8 16.1 0.00 0.05 0.00 44 1021.5
20260502205245 23 67 4.8 14.5 0.00 0.15 0.00 46 1021.6
20260502204745 23 53 6.4 14.5 0.00 0.15 0.00 45 1021.7
20260502204245 22 57 4.8 16.1 0.00 0.15 0.00 46 1021.7
20260502203745 22 16 3.2 16.1 0.00 0.15 0.00 46 1021.7
20260502203243 22 75 3.2 14.5 0.00 0.15 0.00 47 1021.8
20260502202738 22 73 6.4 20.9 0.00 0.15 0.00 45 1021.8
20260502202232 22 56 4.8 20.9 0.00 0.15 0.00 44 1021.9
20260502201957 22 70 6.4 17.7 0.00 0.15 0.00 46 1021.9
20260502201220 22 12 6.4 17.7 0.00 0.15 0.00 45 1022.0
20260502200714 22 5 6.4 17.7 0.00 0.15 0.00 45 1022.0
20260502195702 22 32 4.8 16.1 0.00 0.18 0.00 48 1022.0
20260502195156 22 41 4.8 16.1 0.00 0.20 0.00 49 1022.1